Weather History for Shishmaref, AK

Change the Weather History Date:

Monday, October 28, 2013

  Actual Average Record
Temperature  
Mean Temperature 32 °F -  
Max Temperature 37 °F 25 °F 37 °F (1996)
Min Temperature 28 °F 19 °F 3 °F (2001)
Degree Days  
Heating Degree Days 32    
Moisture  
Dew Point 31 °F    
Average Humidity 89    
Maximum Humidity 93    
Minimum Humidity 75    
Precipitation  
Precipitation 0.00 in - - ()
Sea Level Pressure  
Sea Level Pressure 29.36 in    
Wind  
Wind Speed 10 mph (NNE)    
Max Wind Speed 22 mph    
Max Gust Speed 26 mph    
Visibility 9 miles    
Events      
Averages and records for this station are not official NWS values.
T = Trace of Precipitation, MM = Missing Value Source: NWS Daily Summary

Daily Weather History Graph

Daily Weather History Graph

Search for Another Location

Airport:

Trip Planner

Search our weather history database for the weather conditions in past years. The results will help you decide how hot, cold, wet, or windy it might be!

Date:

Astronomy

Oct. 28, 2013 Rise Set
Actual Time 10:48 AM AKDT 6:46 PM AKDT
Civil Twilight 9:51 AM AKDT 7:43 PM AKDT
Nautical Twilight 8:49 AM AKDT 8:44 PM AKDT
Astronomical Twilight 7:50 AM AKDT 9:44 PM AKDT
Moon 2:34 AM AKDT (10/28) 5:38 PM AKDT (10/28)
Length of Visible Light 9h 52m
Length of Day
7h 57m
Waning Crescent, 33% of the Moon is Illuminated
Oct 28
Waning Crescent
Nov 3
New
Nov 9
First Quarter
Nov 17
Full
Nov 25
Last Quarter

Hourly Weather History & Observations

Time (AKDT) Temp. Windchill Dew Point Humidity Pressure Visibility Wind Dir Wind Speed Gust Speed Precip Events Conditions
12:16 AM 33.8 °F 27.0 °F 30.2 °F 87% 29.56 in 10.0 mi ESE 8.1 mph - N/A   Clear
12:36 AM 33.8 °F 28.6 °F 30.2 °F 87% 29.55 in 10.0 mi ESE 5.8 mph - N/A   Clear
12:56 AM 33.8 °F 28.6 °F 30.2 °F 87% 29.54 in 10.0 mi ESE 5.8 mph - N/A   Clear
1:16 AM 33.8 °F 29.6 °F 30.2 °F 87% 29.54 in 10.0 mi ESE 4.6 mph - N/A   Clear
1:36 AM 33.8 °F 29.6 °F 28.4 °F 81% 29.54 in 10.0 mi ESE 4.6 mph - N/A   Clear
1:56 AM 33.8 °F 27.7 °F 30.2 °F 87% 29.53 in 10.0 mi ESE 6.9 mph - N/A   Clear
2:16 AM 33.8 °F 27.7 °F 30.2 °F 87% 29.52 in 10.0 mi ESE 6.9 mph - N/A   Clear
2:36 AM 33.8 °F 30.8 °F 30.2 °F 87% 29.51 in 10.0 mi ESE 3.5 mph - N/A   Clear
2:56 AM 32.0 °F 26.4 °F 28.4 °F 87% 29.50 in 10.0 mi ESE 5.8 mph - N/A   Clear
3:16 AM 33.8 °F 26.4 °F 30.2 °F 87% 29.49 in 10.0 mi SE 9.2 mph - N/A   Clear
3:36 AM 33.8 °F 28.6 °F 28.4 °F 81% 29.49 in 10.0 mi ESE 5.8 mph - N/A   Clear
3:56 AM 32.0 °F 24.8 °F 28.4 °F 87% 29.48 in 10.0 mi ESE 8.1 mph - N/A   Clear
4:16 AM 32.0 °F 28.7 °F 28.4 °F 87% 29.47 in 10.0 mi NE 3.5 mph - N/A   Clear
4:36 AM 32.0 °F 28.7 °F 28.4 °F 87% 29.46 in 10.0 mi East 3.5 mph - N/A   Clear
4:56 AM 32.0 °F 28.7 °F 30.2 °F 93% 29.45 in 10.0 mi NE 3.5 mph - N/A   Clear
5:16 AM 33.8 °F 27.0 °F 28.4 °F 81% 29.44 in 10.0 mi NE 8.1 mph - N/A   Clear
5:36 AM 33.8 °F 27.0 °F 30.2 °F 87% 29.43 in 10.0 mi NE 8.1 mph - N/A   Clear
5:56 AM 33.8 °F 25.8 °F 30.2 °F 87% 29.43 in 10.0 mi NE 10.4 mph - N/A   Clear
6:16 AM 30.2 °F 21.9 °F 28.4 °F 93% 29.42 in 10.0 mi ENE 9.2 mph - N/A   Clear
6:36 AM 30.2 °F 21.9 °F 28.4 °F 93% 29.43 in 10.0 mi East 9.2 mph - N/A   Clear
6:56 AM 30.2 °F 21.9 °F 28.4 °F 93% 29.42 in 10.0 mi East 9.2 mph - N/A   Clear
7:16 AM 30.2 °F 25.4 °F 26.6 °F 86% 29.42 in 10.0 mi East 4.6 mph - N/A   Clear
7:36 AM 30.2 °F 26.7 °F 26.6 °F 86% 29.41 in 10.0 mi East 3.5 mph - N/A   Mostly Cloudy
7:56 AM 28.4 °F 20.4 °F 26.6 °F 93% 29.41 in 10.0 mi East 8.1 mph - N/A   Mostly Cloudy
8:16 AM 28.4 °F 20.4 °F 26.6 °F 93% 29.41 in 1.2 mi ENE 8.1 mph - N/A   Overcast
8:36 AM 28.4 °F 21.2 °F 26.6 °F 93% 29.40 in 1.5 mi ENE 6.9 mph - N/A   Overcast
8:56 AM 30.2 °F 22.6 °F 28.4 °F 93% 29.40 in 2.0 mi ENE 8.1 mph - N/A   Overcast
9:16 AM 30.2 °F 24.3 °F 28.4 °F 93% 29.39 in 1.5 mi ENE 5.8 mph - N/A   Overcast
9:36 AM 32.0 °F 25.6 °F 30.2 °F 93% 29.39 in 5.0 mi ENE 6.9 mph - N/A   Overcast
9:56 AM 33.8 °F 27.0 °F 30.2 °F 87% 29.38 in 1.8 mi ENE 8.1 mph - N/A   Overcast
10:16 AM 33.8 °F 26.4 °F 32.0 °F 93% 29.37 in 7.0 mi ENE 9.2 mph - N/A   Overcast
10:36 AM 33.8 °F 27.7 °F 32.0 °F 93% 29.37 in 10.0 mi ENE 6.9 mph - N/A   Overcast
10:56 AM 33.8 °F 27.7 °F 32.0 °F 93% 29.37 in 10.0 mi ENE 6.9 mph - N/A   Overcast
11:16 AM 33.8 °F 27.7 °F 32.0 °F 93% 29.36 in 10.0 mi ENE 6.9 mph - N/A   Overcast
11:36 AM 33.8 °F 27.7 °F 32.0 °F 93% 29.35 in 9.0 mi NE 6.9 mph - N/A   Overcast
11:56 AM 33.8 °F 28.6 °F 32.0 °F 93% 29.35 in 7.0 mi NNE 5.8 mph - N/A   Overcast
12:16 PM 35.6 °F 28.6 °F 33.8 °F 93% 29.34 in 10.0 mi NNE 9.2 mph - N/A   Overcast
12:36 PM 35.6 °F 27.5 °F 33.8 °F 93% 29.34 in 10.0 mi North 11.5 mph - N/A   Overcast
12:56 PM 35.6 °F 28.6 °F 33.8 °F 93% 29.33 in 10.0 mi North 9.2 mph - N/A   Overcast
1:16 PM 35.6 °F 27.5 °F 33.8 °F 93% 29.33 in 10.0 mi North 11.5 mph - N/A   Overcast
1:36 PM 35.6 °F 26.6 °F 33.8 °F 93% 29.32 in 10.0 mi North 13.8 mph - N/A   Overcast
1:56 PM 35.6 °F 26.6 °F 33.8 °F 93% 29.32 in 10.0 mi North 13.8 mph - N/A   Mostly Cloudy
2:16 PM 35.6 °F 28.0 °F 33.8 °F 93% 29.31 in 10.0 mi North 10.4 mph - N/A   Mostly Cloudy
2:36 PM 35.6 °F 28.6 °F 33.8 °F 93% 29.31 in 10.0 mi North 9.2 mph - N/A   Overcast
2:56 PM 35.6 °F 27.1 °F 33.8 °F 93% 29.30 in 10.0 mi North 12.7 mph - N/A   Overcast
3:16 PM 35.6 °F 25.9 °F 33.8 °F 93% 29.29 in 10.0 mi North 16.1 mph - N/A   Overcast
3:36 PM 35.6 °F 25.5 °F 33.8 °F 93% 29.29 in 10.0 mi North 17.3 mph - N/A   Overcast
3:56 PM 35.6 °F 25.5 °F 33.8 °F 93% 29.28 in 10.0 mi NNW 17.3 mph - N/A   Scattered Clouds
4:16 PM 35.6 °F 25.2 °F 33.8 °F 93% 29.27 in 10.0 mi NNW 18.4 mph - N/A   Clear
4:36 PM 35.6 °F 24.8 °F 33.8 °F 93% 29.27 in 10.0 mi North 19.6 mph - N/A   Clear
4:56 PM 35.6 °F 24.8 °F 33.8 °F 93% 29.27 in 10.0 mi North 19.6 mph - N/A   Clear
5:16 PM 35.6 °F 25.5 °F 33.8 °F 93% 29.26 in 10.0 mi North 17.3 mph - N/A   Clear
5:36 PM 35.6 °F 25.5 °F 33.8 °F 93% 29.26 in 10.0 mi NNW 17.3 mph - N/A   Clear
5:56 PM 35.6 °F 24.8 °F 33.8 °F 93% 29.26 in 10.0 mi NNW 19.6 mph - N/A   Clear
6:16 PM 35.6 °F 24.8 °F 33.8 °F 93% 29.26 in 10.0 mi NNW 19.6 mph - N/A   Clear
6:36 PM 35.6 °F 24.5 °F 32.0 °F 87% 29.26 in 10.0 mi NNW 20.7 mph - N/A   Clear
6:56 PM 35.6 °F 24.8 °F 32.0 °F 87% 29.26 in 10.0 mi NNW 19.6 mph - N/A   Clear
7:16 PM 35.6 °F 24.5 °F 32.0 °F 87% 29.25 in 10.0 mi NNW 20.7 mph - N/A   Clear
7:36 PM 35.6 °F 24.5 °F 32.0 °F 87% 29.25 in 10.0 mi NNW 20.7 mph - N/A   Clear
7:56 PM 35.6 °F 24.8 °F 32.0 °F 87% 29.25 in 10.0 mi NNW 19.6 mph - N/A   Clear
8:16 PM 35.6 °F 24.8 °F 32.0 °F 87% 29.25 in 10.0 mi NNW 19.6 mph - N/A   Clear
8:36 PM 35.6 °F 24.8 °F 32.0 °F 87% 29.26 in 10.0 mi NNW 19.6 mph - N/A   Clear
8:56 PM 35.6 °F 24.2 °F 32.0 °F 87% 29.26 in 10.0 mi North 21.9 mph - N/A   Scattered Clouds
9:16 PM 37.4 °F 26.9 °F 30.2 °F 75% 29.26 in 10.0 mi North 20.7 mph - N/A   Mostly Cloudy
9:36 PM 35.6 °F 24.5 °F 30.2 °F 81% 29.27 in 10.0 mi North 20.7 mph - N/A   Partly Cloudy
9:56 PM 35.6 °F 24.2 °F 30.2 °F 81% 29.27 in 10.0 mi North 21.9 mph - N/A   Clear
10:16 PM 35.6 °F 24.5 °F 32.0 °F 87% 29.28 in 10.0 mi North 20.7 mph - N/A   Clear
10:36 PM 37.4 °F 27.2 °F 32.0 °F 81% 29.29 in 10.0 mi North 19.6 mph 26.5 mph N/A   Partly Cloudy
10:56 PM 37.4 °F 27.2 °F 32.0 °F 81% 29.30 in 10.0 mi North 19.6 mph - N/A   Mostly Cloudy
11:16 PM 37.4 °F 27.2 °F 32.0 °F 81% 29.30 in 10.0 mi North 19.6 mph - N/A   Overcast
11:36 PM 35.6 °F 24.5 °F 30.2 °F 81% 29.31 in 10.0 mi North 20.7 mph - N/A   Overcast
11:56 PM 35.6 °F 24.5 °F 32.0 °F 87% 29.31 in 10.0 mi North 20.7 mph - N/A   Overcast